www.pogodaiklimat.ru

Погода и климат >> Архив погоды >> Кувейт >> Кувейт Сити


ПОГОДА в Кувейт Сити

  • Прогноз погоды в Кувейт Сити
  • Монитор погоды в Кувейт Сити

АРХИВ ПОГОДЫ в Кувейт Сити

Время (UTC), дата Ветер
(напр.,м/с)
 
Видим.   Явления Облачность Т
(С)
Тd
(С)
f
(%)
Тe
(С)
Тes
(С)
Комфортность P
(гПа)
Po
(гПа)
Тmin
(С)
Tmax
(С)
R
(мм)
R24
(мм)
S
(см)
21 17.06 СЗ 2-6
{6}
н/о н/о +38.3 +8.9 17 +37 +37 очень
жарко
1003.9 1002.7 +36.5 +47.5
00 18.06 С 3-4
{7}
н/о н/о +35.5 +11.3 23 +35 +35 очень
жарко
1003.4 1002.2
03 18.06 С 3-6
{8}
н/о н/о +35.5 +11.2 23 +35 +35 очень
жарко
1004.2 1003.0
06 18.06 С 4-6
{8}
н/о н/о +39.3 +10.0 17 +38 +38 очень
жарко
1004.9 1003.7
09 18.06 С 4-8
{8}
н/о н/о +42.7 +9.7 14 +41 +41 опасность
перегрева
1003.9 1002.7
12 18.06 С 2-6
{8}
н/о н/о +44.9 +7.2 11 +43 +43 опасность
перегрева
1002.4 1001.2
15 18.06 С 2-6
{9}
н/о н/о +41.7 +8.8 14 +40 +40 очень
жарко
1001.9 1000.7
18 18.06 С 3-6
{9}
н/о н/о +39.4 +7.9 15 +37 +37 очень
жарко
1003.0 1001.8
21 18.06 СЗ 3-7
{8}
н/о н/о +37.1 +8.5 18 +35 +35 очень
жарко
1002.1 1000.9 +34.3 +46.0
00 19.06 С 3-8
{9}
н/о н/о +34.7 +10.4 23 +34 +34 очень
жарко
1001.1 999.9
03 19.06 СЗ 3-9
{11}
н/о н/о +34.5 +10.6 23 +34 +34 очень
жарко
1001.9 1000.7
06 19.06 СЗ 3-10
{11}
н/о н/о +37.8 +11.1 20 +37 +37 очень
жарко
1002.8 1001.6
09 19.06 СЗ 4-12
{14}
н/о н/о +41.2 +8.4 14 +39 +39 очень
жарко
1002.1 1000.9
12 19.06 СЗ 3-7
{14}
н/о н/о +43.1 +7.0 12 +41 +41 опасность
перегрева
1000.8 999.6
15 19.06 СВ 2-8
{11}
н/о н/о +39.4 +10.6 18 +38 +38 очень
жарко
1000.6 999.4
18 19.06 З 3-8
{11}
н/о н/о +37.2 +9.2 18 +35 +35 очень
жарко
1002.0 1000.8
21 19.06 Ю 2-5
{10}
н/о н/о +34.9 +10.8 23 +34 +34 очень
жарко
1001.7 1000.5 +33.5 +43.3
00 20.06 ЮВ 2-5
{10}
н/о н/о +33.0 +10.4 25 +32 +32 жарко 1001.4 1000.2
03 20.06 З 2-6
{8}
н/о н/о +33.1 +12.1 28 +33 +33 жарко 1002.5 1001.3
06 20.06 С 3-8
{10}
н/о н/о +36.6 +12.4 23 +36 +36 очень
жарко
1003.0 1001.8
09 20.06 СВ 3-10
{13}
н/о н/о +40.9 +6.9 13 +38 +38 очень
жарко
1001.9 1000.7
12 20.06 СВ 2-7
{13}
н/о н/о +42.3 +8.4 13 +40 +40 очень
жарко
1000.4 999.2
15 20.06 С 2-7
{10}
н/о н/о +39.7 +10.3 17 +38 +38 очень
жарко
1000.3 999.1
18 20.06 С 2-4
{10}
н/о н/о +37.5 +8.9 18 +36 +36 очень
жарко
1001.9 1000.7
21 20.06 СЗ 3-7
{7}
н/о н/о +35.4 +10.2 22 +34 +34 очень
жарко
1002.0 1000.8 +32.5 +42.8
00 21.06 С 2-5
{9}
н/о н/о +33.8 +11.7 26 +34 +34 очень
жарко
1001.6 1000.4
03 21.06 З 2-8
{8}
н/о н/о +33.0 +11.9 28 +33 +33 жарко 1003.3 1002.1
06 21.06 С 2-6
{8}
н/о н/о +38.0 +13.1 23 +38 +38 очень
жарко
1003.7 1002.5
09 21.06 ЮЗ 2-6
{10}
н/о н/о +40.7 +7.4 13 +38 +38 очень
жарко
1002.7 1001.5
12 21.06 Ю 2-7
{10}
н/о н/о +42.2 +6.3 11 +39 +39 очень
жарко
1001.0 999.8
15 21.06 С 3-7
{9}
н/о н/о +39.9 +6.6 13 +37 +37 очень
жарко
1000.7 999.5
18 21.06 З 2-4
{9}
н/о н/о +37.2 +6.1 15 +35 +35 очень
жарко
1001.8 1000.6
21 21.06 Ю 2-5
{62}
н/о н/о +34.4 +9.9 22 +33 +33 жарко 1001.7 1000.5 +32.3 +42.7
00 22.06 СЗ 3-7
{62}
н/о н/о +32.9 +11.0 26 +33 +33 жарко 1001.6 1000.4
03 22.06 СЗ 2-7
{9}
н/о н/о +32.3 +11.6 28 +32 +32 жарко 1002.8 1001.6
06 22.06 СЗ 3-7
{9}
н/о н/о +36.4 +10.7 21 +35 +35 очень
жарко
1003.5 1002.3
09 22.06 ЮЗ 3-6
{7}
н/о н/о +41.0 +6.5 12 +38 +38 очень
жарко
1003.0 1001.8
12 22.06 З 2-4
{7}
н/о н/о +44.0 +4.2 9 +41 +41 опасность
перегрева
1002.0 1000.8
15 22.06 В 2-5
{6}
н/о н/о +39.3 +9.9 17 +38 +38 очень
жарко
1001.6 1000.4
18 22.06 СВ 1-2
{6}
н/о н/о +36.2 +16.3 31 +39 +39 очень
душно
1002.5 1001.3
21 22.06 С 2-4
{5}
н/о н/о +37.0 +5.5 14 +34 +34 очень
жарко
1002.5 1001.3 +31.9 +45.4
00 23.06 ЮЗ 1-4
{7}
н/о н/о +34.2 +11.3 25 +34 +34 очень
жарко
1002.3 1001.1
03 23.06 СЗ 2-5
{7}
н/о н/о +33.8 +13.1 29 +35 +35 очень
жарко
1003.4 1002.2
06 23.06 СЗ 2-5
{8}
н/о н/о +38.2 +9.4 18 +37 +37 очень
жарко
1004.3 1003.1
09 23.06 СВ 3-6
{7}
н/о н/о +41.1 +6.8 13 +39 +39 очень
жарко
1003.5 1002.3
12 23.06 ЮВ 2-6
{7}
н/о н/о +43.5 +7.3 11 +41 +41 опасность
перегрева
1002.3 1001.1
15 23.06 ЮВ 1-4
{6}
н/о н/о +40.7 +10.6 17 +40 +40 очень
жарко
1001.8 1000.6
18 23.06 Ю 2-5
{7}
н/о н/о +38.9 +7.1 14 +36 +36 очень
жарко
1002.8 1001.6
21 23.06 Ю 1-2
{5}
н/о н/о +36.4 +11.0 22 +36 +36 очень
жарко
1002.6 1001.4 +33.1 +44.3
00 24.06 С 2-4
{6}
н/о н/о +35.8 +10.5 22 +35 +35 очень
жарко
1002.7 1001.5
03 24.06 С 1-4
{6}
н/о н/о +35.2 +9.0 20 +34 +34 очень
жарко
1003.3 1002.1
06 24.06 ЮЗ 2-5
{7}
н/о н/о +40.1 +7.1 14 +38 +38 очень
жарко
1004.1 1002.9
09 24.06 С 3-5
{6}
н/о н/о +44.9 -0.1 6 +41 +41 опасность
перегрева
1003.2 1002.0
12 24.06 В 2-5
{8}
н/о н/о +45.7 +0.9 7 +42 +42 опасность
перегрева
1001.9 1000.7
15 24.06 В 1-2
{6}
н/о н/о +43.3 +5.6 10 +40 +40 очень
жарко
1001.6 1000.4

 

Местоположение метеостанции Кувейт Сити (Кувейт): широта 29.33 долгота 48.05 высота над уровнем моря 11 м.

В архиве по умолчанию представлена погода в Кувейт Сити за последнюю неделю. Архивные данные за месяц целиком и за предыдущие месяцы, начиная с января 2011 года, Вы можете получить, выбрав интересующий диапазон дат из раскрывающегося списка и нажав кнопку "Ввод!".


*Определитесь, кто Вы:
робот инопланетянин человек

Внимание! Время в таблицах - всемирное. Для получения местного времени необходимо прибавить поправку, которая равна 3 ч.

Смотрите также архив погоды в соседних городах и на ближайших метеорологических станциях:

Погода в Аль-Шуаиба (Кувейт) (5 км)
Погода на Экспериментальной ферме (Кувейт) (12 км)
Погода в Эль-Кувейте (Кувейт) (14 км)
Погода Остров Файлака (Кувейт) (27 км)
Погода в Сулайбии (Кувейт) (33 км)
Погода в Эль-Джахра (Кувейт) (37 км)
Погода на Метеостанции Sabriyah (Кувейт) (51 км)
Погода на Метеостанции Jal Aliyah (Кувейт) (55 км)
Погода в Порту Juluiah (Кувейт) (56 км)
Погода в Минагише (Кувейт) (58 км)

Пояснения к столбцам:

Ветер - указаны скорость ветра в м/с - средняя за 10 мин, порывы в срок и между сроками (в фигурных скобках) и направление, откуда дует ветер: С - северный, СВ - северо-восточный, В - восточный, ЮВ - юго-восточный, Ю - южный, ЮЗ - юго-западный, З - западный, СЗ - северо-западный.
Видимость - горизонтальная дальность видимости в метрах или километрах. При видимости от 1 до 10 км при отсутствии осадков обычно наблюдается дымка, при ухудшении видимости до 1 км и менее - туман. В сухую погоду видимость может ухудшаться дымом, пылью или мглою.
Явления - указаны атмосферные явления, наблюдавшиеся в срок или в последний час перед сроком; фигурными скобками обозначены явления, наблюдавшиеся между сроками (за 1-3 часа до срока); квадратными скобками обозначены град или гололедные отложения с указанием их диаметра в мм.
Облачность - указаны через наклонную черту общая и нижняя облачность в баллах и высота нижней границы облаков в метрах; квадратными скобками обозначены формы облаков: Ci - перистые, Cs - перисто-слоистые, Cc - перисто-кучевые, Ac - высококучевые, As - высокослоистые, Sc - слоисто-кучевые, Ns - слоисто-дождевые, Cu - кучевые, Cb - кучево-дождевые. Подробнее классификацию облаков см. в Атласе облаков (PDF).
T - Температура воздуха - температура, измеренная на высоте 2 м над землей.
Td - Температура точки росы - температура, при понижении до которой содержащийся в воздухе водяной пар достигнет насыщения.
f - Относительная влажность воздуха - влажноcть воздуха, измеренная на высоте 2 м над землей.
Te - Эффективная температура - температура, которую ощущает одетый по сезону человек в тени. Характеристика душности погоды. При расчете учитывается влияние влажности воздуха и скорости ветра на теплоощущения человека.
Tes - Эффективная температура на солнце - температура, которую ощущает человек, с поправкой на солнечный нагрев. Характеристика знойности погоды. Зависит от высоты солнца над горизонтом, облачности и скорости ветра. Ночью, в пасмурную погоду, а также при ветре 12 м/с и более поправка равна нулю.
P - Атмосферное давление - приведенное к уровню моря атмосферное давление.
Po - Атмосферное давление - измеренное на уровне метеостанции атмосферное давление.
Tmin - Минимальная температура - минимум температуры воздуха на высоте 2 м над землей.
Tmax - Максимальная температура - максимум температуры воздуха на высоте 2 м над землей.
R - Количество осадков - Количество выпавших осадков за период времени, мм. При наведении курсора мыши на число - период времени, за который выпало указанное количество осадков.
R24 - Количество осадков - Количество выпавших осадков за 24 часа, мм.
S - Снежный покров - Высота снежного покрова, см. При наведении курсора мыши на число - состояние снежного покрова и степень покрытия местности в баллах.